Torna al catalogo

STARLINK-38171

AttivoComunicazioniSSO
NORAD 100382·PAYLOAD·🇺🇸 United States

Lanciato Aug 19, 2026 da Vandenberg Space Force Base

Loading…

Prossimi Passaggi (prossime 24 ore)

TLE

AggiornatoSource: Space-Track

Epoca: Sep 14, 2026, 12:43 UTC

1 A0382U 26190M   26257.52996019  .00228222  00000-0  14779-2 0  9992
2 A0382  97.2838 111.5593 0002708 123.6215 236.5310 15.75383230  4173

Traccia STARLINK-38171 in tempo reale con AllMySat

Download on the App Store